NKS188 LICA-LGAV

Flight info

Callsign NKS188
Flight time 0h 54m
Altitude 37000
Route ARBUM DCT CRN M601 RUTOM N604 ARA B34 NEMES
Aircraft A320/M-SDE3FGHIRWY/LB1

Departure

Time 2026-04-22 19:26
Airport Lamezia Terme Sant'Eufemia International Airport (LICA)

Arrival

Time 2026-04-22 20:20
Airport Athens Eleftherios Venizelos International Airport (LGAV)
Time Latitude Longitude Altitude Speed Heading
2026-04-22 18:47 38.90872 16.24444 40 ft 0 kts 13°
2026-04-22 19:12 38.90870 16.24443 40 ft 2 kts 13°
2026-04-22 19:12 38.90846 16.24441 38 ft 4 kts 324°
2026-04-22 19:12 38.90841 16.24453 38 ft 1 kts 224°
2026-04-22 19:13 38.90841 16.24454 38 ft 0 kts 224°
2026-04-22 19:16 38.90840 16.24452 38 ft 2 kts 224°
2026-04-22 19:16 38.90820 16.24421 38 ft 6 kts 239°
2026-04-22 19:16 38.90824 16.24359 39 ft 9 kts 279°
2026-04-22 19:16 38.90832 16.24295 39 ft 0 kts 279°
2026-04-22 19:17 38.90834 16.24282 39 ft 6 kts 275°
2026-04-22 19:17 38.90805 16.24204 38 ft 12 kts 234°
2026-04-22 19:17 38.90777 16.24102 37 ft 14 kts 280°
2026-04-22 19:17 38.90795 16.23970 36 ft 16 kts 278°
2026-04-22 19:18 38.90813 16.23813 35 ft 19 kts 278°
2026-04-22 19:18 38.90828 16.23693 34 ft 0 kts 279°
2026-04-22 19:18 38.90830 16.23675 34 ft 8 kts 279°
2026-04-22 19:18 38.90840 16.23572 32 ft 13 kts 277°
2026-04-22 19:19 38.90856 16.23443 33 ft 16 kts 278°
2026-04-22 19:19 38.90874 16.23287 31 ft 19 kts 278°
2026-04-22 19:19 38.90871 16.23137 30 ft 0 kts 257°
2026-04-22 19:22 38.90869 16.23127 30 ft 7 kts 256°
2026-04-22 19:22 38.90831 16.23022 30 ft 15 kts 239°
2026-04-22 19:23 38.90814 16.22990 29 ft 0 kts 234°
2026-04-22 19:23 38.90811 16.22984 29 ft 3 kts 234°
2026-04-22 19:23 38.90810 16.22982 29 ft 0 kts 234°
2026-04-22 19:24 38.90792 16.22950 29 ft 9 kts 233°
2026-04-22 19:24 38.90740 16.22917 29 ft 7 kts 178°
2026-04-22 19:24 38.90695 16.22957 29 ft 9 kts 120°
2026-04-22 19:25 38.90681 16.23041 31 ft 12 kts 102°
2026-04-22 19:25 38.90659 16.23224 34 ft 55 kts 97°
2026-04-22 19:25 38.90572 16.23991 36 ft 116 kts 97°
2026-04-22 19:25 38.90474 16.25194 206 ft 140 kts 96°
2026-04-22 19:26 38.90262 16.26256 928 ft 119 kts 108°
2026-04-22 19:26 38.89947 16.27334 1105 ft 139 kts 107°
2026-04-22 19:26 38.89621 16.28450 1611 ft 136 kts 107°
2026-04-22 19:26 38.89401 16.29697 1781 ft 154 kts 97°
2026-04-22 19:27 38.89256 16.31193 1853 ft 185 kts 96°
2026-04-22 19:27 38.89086 16.32945 2097 ft 210 kts 97°
2026-04-22 19:27 38.88877 16.34908 2510 ft 234 kts 98°
2026-04-22 19:27 38.88621 16.37075 3062 ft 254 kts 99°
2026-04-22 19:28 38.88328 16.39343 3869 ft 262 kts 100°
2026-04-22 19:28 38.88010 16.41687 4703 ft 271 kts 101°
2026-04-22 19:28 38.87672 16.44103 5506 ft 279 kts 100°
2026-04-22 19:28 38.87317 16.46588 6345 ft 287 kts 99°
2026-04-22 19:29 38.87082 16.49152 7131 ft 293 kts 85°
2026-04-22 19:29 38.87483 16.51720 7898 ft 297 kts 71°
2026-04-22 19:29 38.88040 16.54303 8706 ft 303 kts 70°
2026-04-22 19:29 38.88613 16.56928 9500 ft 309 kts 70°
2026-04-22 19:30 38.89000 16.58697 9995 ft 313 kts 70°
2026-04-22 19:30 38.89817 16.62411 10496 ft 338 kts 69°
2026-04-22 19:30 38.90480 16.65414 10741 ft 358 kts 70°
2026-04-22 19:30 38.91160 16.68537 11331 ft 367 kts 70°
2026-04-22 19:31 38.91843 16.71719 11988 ft 372 kts 70°
2026-04-22 19:31 38.92531 16.74942 12671 ft 377 kts 70°
2026-04-22 19:31 38.93224 16.78215 13340 ft 382 kts 70°
2026-04-22 19:31 38.93927 16.81530 14004 ft 387 kts 70°
2026-04-22 19:32 38.94642 16.84884 14604 ft 391 kts 69°
2026-04-22 19:32 38.95367 16.88274 15208 ft 395 kts 70°
2026-04-22 19:32 38.96099 16.91697 15809 ft 400 kts 69°
2026-04-22 19:32 38.96837 16.95164 16407 ft 404 kts 70°
2026-04-22 19:33 38.97580 16.98665 17008 ft 408 kts 70°
2026-04-22 19:33 38.98331 17.02197 17604 ft 412 kts 70°
2026-04-22 19:33 38.98864 17.05864 18180 ft 422 kts 81°
2026-04-22 19:33 38.98884 17.09673 18704 ft 431 kts 92°
2026-04-22 19:34 38.98367 17.13496 19254 ft 437 kts 104°
2026-04-22 19:34 38.97473 17.17246 19808 ft 441 kts 107°
2026-04-22 19:34 38.96561 17.21013 20383 ft 444 kts 107°
2026-04-22 19:34 38.95645 17.24821 20943 ft 447 kts 107°
2026-04-22 19:35 38.94727 17.28650 21480 ft 450 kts 107°
2026-04-22 19:35 38.93802 17.32507 22020 ft 453 kts 107°
2026-04-22 19:35 38.92872 17.36385 22545 ft 456 kts 107°
2026-04-22 19:35 38.91934 17.40296 23055 ft 459 kts 107°
2026-04-22 19:36 38.90999 17.44174 23564 ft 462 kts 107°
2026-04-22 19:36 38.90040 17.48129 23991 ft 465 kts 107°
2026-04-22 19:36 38.89074 17.52104 24407 ft 468 kts 108°
2026-04-22 19:36 38.88101 17.56108 24817 ft 471 kts 108°
2026-04-22 19:37 38.87123 17.60123 25216 ft 473 kts 108°
2026-04-22 19:37 38.86135 17.64168 25619 ft 476 kts 108°
2026-04-22 19:37 38.85142 17.68228 26002 ft 478 kts 108°
2026-04-22 19:37 38.84145 17.72307 26381 ft 481 kts 108°
2026-04-22 19:38 38.83139 17.76418 26760 ft 484 kts 108°
2026-04-22 19:38 38.82127 17.80542 27130 ft 486 kts 108°
2026-04-22 19:38 38.81108 17.84687 27499 ft 489 kts 108°
2026-04-22 19:38 38.80080 17.88850 27869 ft 491 kts 108°
2026-04-22 19:39 38.79045 17.93033 28233 ft 494 kts 108°
2026-04-22 19:39 38.78001 17.97239 28590 ft 496 kts 108°
2026-04-22 19:39 38.76952 18.01462 28945 ft 499 kts 108°
2026-04-22 19:39 38.75898 18.05708 29286 ft 502 kts 108°
2026-04-22 19:40 38.74839 18.09974 29625 ft 504 kts 108°
2026-04-22 19:40 38.73769 18.14263 29964 ft 507 kts 108°
2026-04-22 19:40 38.72690 18.18573 30273 ft 509 kts 108°
2026-04-22 19:40 38.71607 18.22899 30573 ft 511 kts 108°
2026-04-22 19:41 38.70522 18.27220 30997 ft 509 kts 108°
2026-04-22 19:41 38.69436 18.31520 31433 ft 507 kts 108°
2026-04-22 19:41 38.68349 18.35810 31866 ft 506 kts 108°
2026-04-22 19:41 38.67261 18.40086 32304 ft 505 kts 108°
2026-04-22 19:42 38.66173 18.44350 32736 ft 504 kts 108°
2026-04-22 19:42 38.65084 18.48608 33170 ft 502 kts 108°
2026-04-22 19:42 38.64000 18.52846 33607 ft 501 kts 108°
2026-04-22 19:42 38.62917 18.57085 34042 ft 500 kts 108°
2026-04-22 19:43 38.60757 18.65521 34759 ft 499 kts 108°
2026-04-22 19:43 38.59677 18.69730 35094 ft 498 kts 108°
2026-04-22 19:43 38.58591 18.73943 35423 ft 498 kts 108°
2026-04-22 19:44 38.57517 18.78089 35735 ft 498 kts 108°
2026-04-22 19:44 38.56428 18.82286 36050 ft 497 kts 108°
2026-04-22 19:44 38.55328 18.86531 36357 ft 497 kts 109°
2026-04-22 19:44 38.54243 18.90721 36653 ft 496 kts 109°
2026-04-22 19:45 38.53157 18.94904 36933 ft 497 kts 109°
2026-04-22 19:45 38.52077 18.99105 37012 ft 499 kts 106°
2026-04-22 19:45 38.50607 19.07787 37025 ft 501 kts 101°
2026-04-22 19:46 38.49227 19.16516 37012 ft 502 kts 101°
2026-04-22 19:46 38.47834 19.25246 37005 ft 502 kts 101°
2026-04-22 19:47 38.46436 19.33975 37013 ft 503 kts 101°
2026-04-22 19:47 38.45035 19.42718 37015 ft 503 kts 101°
2026-04-22 19:48 38.43621 19.51461 37017 ft 503 kts 101°
2026-04-22 19:48 38.42191 19.60208 37018 ft 504 kts 101°
2026-04-22 19:49 38.40759 19.68955 37012 ft 504 kts 101°
2026-04-22 19:49 38.39328 19.77716 37011 ft 504 kts 101°
2026-04-22 19:50 38.37892 19.86470 37013 ft 505 kts 102°
2026-04-22 19:50 38.36457 19.95171 37008 ft 505 kts 102°
2026-04-22 19:51 38.34997 20.03919 37009 ft 505 kts 102°
2026-04-22 19:51 38.33519 20.12734 36996 ft 505 kts 102°
2026-04-22 19:52 38.32056 20.21424 36996 ft 505 kts 102°
2026-04-22 19:52 38.30635 20.30243 36996 ft 505 kts 100°
2026-04-22 19:53 38.29537 20.39014 36994 ft 505 kts 98°
2026-04-22 19:53 38.28520 20.47871 36995 ft 505 kts 98°
2026-04-22 19:54 38.27424 20.56704 36996 ft 505 kts 99°
2026-04-22 19:54 38.26257 20.65521 36993 ft 506 kts 99°
2026-04-22 19:55 38.25087 20.74355 36983 ft 506 kts 99°
2026-04-22 19:55 38.23925 20.83200 36988 ft 506 kts 99°
2026-04-22 19:56 38.22762 20.92035 36988 ft 507 kts 99°
2026-04-22 19:56 38.21591 21.00868 36983 ft 507 kts 99°
2026-04-22 19:57 38.20402 21.09702 36988 ft 507 kts 99°
2026-04-22 19:57 38.19206 21.18535 36987 ft 507 kts 99°
2026-04-22 19:58 38.18014 21.27375 36992 ft 507 kts 99°
2026-04-22 19:58 38.16817 21.36210 36990 ft 508 kts 100°
2026-04-22 20:00 38.07398 21.64883 36984 ft 505 kts 118°
2026-04-22 20:01 38.04295 21.72870 36984 ft 505 kts 118°
2026-04-22 20:01 38.01185 21.80849 37000 ft 504 kts 119°
2026-04-22 20:02 37.98070 21.88806 36445 ft 506 kts 119°
2026-04-22 20:02 37.96483 21.92846 35306 ft 517 kts 119°
2026-04-22 20:02 37.94866 21.96953 34338 ft 523 kts 118°
2026-04-22 20:02 37.93237 22.01097 33376 ft 527 kts 118°
2026-04-22 20:03 37.91607 22.05241 32593 ft 525 kts 118°
2026-04-22 20:03 37.89982 22.09373 31792 ft 524 kts 118°
2026-04-22 20:03 37.88363 22.13488 31105 ft 521 kts 118°
2026-04-22 20:03 37.86753 22.17570 30465 ft 517 kts 118°
2026-04-22 20:04 37.85154 22.21617 29870 ft 511 kts 118°
2026-04-22 20:04 37.83567 22.25629 29226 ft 507 kts 118°
2026-04-22 20:04 37.81996 22.29596 28607 ft 503 kts 118°
2026-04-22 20:04 37.80434 22.33524 28006 ft 497 kts 118°
2026-04-22 20:05 37.78885 22.37410 27404 ft 493 kts 118°
2026-04-22 20:05 37.77350 22.41261 26829 ft 488 kts 118°
2026-04-22 20:05 37.75828 22.45085 26243 ft 485 kts 118°
2026-04-22 20:05 37.74320 22.48868 25694 ft 481 kts 118°
2026-04-22 20:06 37.72820 22.52624 25118 ft 477 kts 118°
2026-04-22 20:06 37.71329 22.56349 24583 ft 473 kts 118°
2026-04-22 20:06 37.70353 22.58795 24244 ft 470 kts 117°
2026-04-22 20:06 37.68942 22.62510 23730 ft 467 kts 116°
2026-04-22 20:07 37.67604 22.66237 23172 ft 464 kts 115°
2026-04-22 20:07 37.66316 22.69947 22619 ft 460 kts 114°
2026-04-22 20:07 37.65047 22.73628 22111 ft 456 kts 114°
2026-04-22 20:07 37.63779 22.77282 21621 ft 452 kts 115°
2026-04-22 20:08 37.62509 22.80890 21142 ft 448 kts 115°
2026-04-22 20:08 37.61233 22.84462 20714 ft 445 kts 115°
2026-04-22 20:08 37.59960 22.87998 20267 ft 441 kts 115°
2026-04-22 20:08 37.58692 22.91509 19826 ft 438 kts 115°
2026-04-22 20:09 37.57432 22.94987 19373 ft 435 kts 115°
2026-04-22 20:09 37.56183 22.98439 18909 ft 431 kts 115°
2026-04-22 20:09 37.54947 23.01863 18439 ft 428 kts 115°
2026-04-22 20:09 37.53720 23.05266 17944 ft 425 kts 115°
2026-04-22 20:10 37.52505 23.08638 17433 ft 421 kts 116°
2026-04-22 20:10 37.51298 23.11975 16915 ft 417 kts 116°
2026-04-22 20:10 37.50097 23.15286 16401 ft 414 kts 115°
2026-04-22 20:10 37.49173 23.18699 15875 ft 411 kts 101°
2026-04-22 20:11 37.49002 23.22262 15404 ft 406 kts 83°
2026-04-22 20:11 37.49574 23.25693 14882 ft 398 kts 66°
2026-04-22 20:11 37.50755 23.28798 14383 ft 391 kts 58°
2026-04-22 20:11 37.52040 23.31815 13866 ft 389 kts 58°
2026-04-22 20:12 37.53311 23.34815 13336 ft 387 kts 58°
2026-04-22 20:12 37.54568 23.37792 12845 ft 383 kts 58°
2026-04-22 20:12 37.55809 23.40741 12362 ft 379 kts 58°
2026-04-22 20:12 37.57017 23.43622 12224 ft 365 kts 59°
2026-04-22 20:13 37.58178 23.46399 12089 ft 352 kts 58°
2026-04-22 20:13 37.59297 23.49087 11963 ft 341 kts 59°
2026-04-22 20:13 37.60380 23.51702 11770 ft 332 kts 59°
2026-04-22 20:13 37.61441 23.54269 11469 ft 329 kts 59°
2026-04-22 20:14 37.62494 23.56816 11162 ft 326 kts 59°
2026-04-22 20:14 37.63540 23.59338 10832 ft 323 kts 59°
2026-04-22 20:14 37.64580 23.61839 10514 ft 321 kts 59°
2026-04-22 20:14 37.65613 23.64323 10215 ft 319 kts 59°
2026-04-22 20:15 37.66640 23.66797 9786 ft 320 kts 59°
2026-04-22 20:15 37.67701 23.69352 8873 ft 336 kts 60°
2026-04-22 20:15 37.68955 23.71889 7955 ft 346 kts 47°
2026-04-22 20:15 37.70752 23.73896 7038 ft 345 kts 34°
2026-04-22 20:16 37.72703 23.75722 6133 ft 354 kts 34°
2026-04-22 20:16 37.74705 23.77595 5056 ft 364 kts 36°
2026-04-22 20:16 37.76740 23.79521 4207 ft 365 kts 37°
2026-04-22 20:16 37.78740 23.81417 3697 ft 349 kts 37°
2026-04-22 20:17 37.80609 23.83184 3267 ft 324 kts 37°
2026-04-22 20:17 37.82355 23.84836 2843 ft 303 kts 37°
2026-04-22 20:17 37.84003 23.86397 2447 ft 288 kts 37°
2026-04-22 20:17 37.85562 23.87875 2067 ft 272 kts 37°
2026-04-22 20:18 37.87030 23.89267 1736 ft 259 kts 36°
2026-04-22 20:18 37.88433 23.90599 1386 ft 241 kts 36°
2026-04-22 20:18 37.89624 23.91730 1066 ft 188 kts 36°
2026-04-22 20:18 37.90570 23.92629 816 ft 155 kts 36°
2026-04-22 20:19 37.91375 23.93393 630 ft 138 kts 37°
2026-04-22 20:19 37.92117 23.94105 436 ft 132 kts 36°
2026-04-22 20:19 37.92835 23.94794 308 ft 121 kts 34°
2026-04-22 20:19 37.93350 23.95273 290 ft 51 kts 37°
2026-04-22 20:20 37.93511 23.95428 284 ft 30 kts 36°
2026-04-22 20:20 37.93675 23.95584 280 ft 20 kts 37°
2026-04-22 20:20 37.93758 23.95572 282 ft 14 kts 312°
2026-04-22 20:20 37.93818 23.95472 299 ft 25 kts 308°
2026-04-22 20:21 37.93858 23.95303 303 ft 19 kts 262°
2026-04-22 20:21 37.93828 23.95180 304 ft 9 kts 257°
2026-04-22 20:21 37.93858 23.95104 301 ft 11 kts 307°
2026-04-22 20:21 37.93871 23.95082 302 ft 0 kts 307°